sim
Sign-in with your pilot id or email,
or register
Callsign
Passwort

Schedule Details

Flight Number: RYR3701 (1)
Departure: East Midlands Airport (EGNX) at 07:10
Arrival: Fuerteventura Airport (GCFV) at 11:25
Route: Ryanair Passenger Schedule. Enter filed route here before submitting Pirep.

Weather Information
Getting current METAR information for EGNX 182020Z 06010KT CAVOK 12/07 Q1027
Getting current METAR information for GCFV 182000Z 36016KT 9999 FEW045 18/11 Q1019

Schedule Frequency

Route Map